Monterey, CA

2:06 PM PST on December 15, 2017 (GMT -0800)
Monterey Peninsula

Weather History for KMRY - October, 2012

Change the Weather History Date:

Wednesday, October 3, 2012

  Actual Average Record
Temperature  
Mean Temperature 65 °F 60 °F  
Max Temperature 76 °F 68 °F 94 °F (2014)
Min Temperature 54 °F 52 °F 45 °F (2013)
Degree Days  
Heating Degree Days 0    
Month to date heating degree days 0  
Since 1 July heating degree days 529  
Cooling Degree Days 0    
Month to date cooling degree days 18  
Year to date cooling degree days 18  
Growing Degree Days 15 (Base 50)    
Moisture  
Dew Point 52 °F    
Average Humidity 65    
Maximum Humidity 84    
Minimum Humidity 46    
Precipitation  
Precipitation 0.00 in - 0.28 in (2011)
Month to date precipitation 0.00  
Year to date precipitation 7.72  
Since 1 July precipitation 0.07  
Sea Level Pressure  
Sea Level Pressure 29.96 in    
Wind  
Wind Speed 4 mph (ESE)    
Max Wind Speed 12 mph    
Max Gust Speed 14 mph    
Visibility 9 miles    
Events      
T = Trace of Precipitation, MM = Missing Value Source: NWS Daily Summary

Daily Weather History Graph

Daily Weather History Graph

Search for Another Location

Airport or City:

Trip Planner

Search our weather history database for the weather conditions in past years. The results will help you decide how hot, cold, wet, or windy it might be!

Date:

Astronomy

Oct. 03, 2012 Rise Set
Actual Time 7:04 AM PDT 6:47 PM PDT
Civil Twilight 6:38 AM PDT 7:12 PM PDT
Nautical Twilight 6:09 AM PDT 7:42 PM PDT
Astronomical Twilight 5:38 AM PDT 8:12 PM PDT
Moon 8:49 PM PDT (10/3) 10:26 AM PDT (10/3)
Length of Visible Light 12h 33m
Length of Day
11h 42m
Waning Gibbous, 88% of the Moon is Illuminated
Oct 3
Waning Gibbous
Oct 8
Last Quarter
Oct 15
New
Oct 21
First Quarter
Oct 29
Full

Hourly Weather History & Observations

Time (PDT) Temp. Dew Point Humidity Pressure Visibility Wind Dir Wind Speed Gust Speed Precip Events Conditions
12:54 AM 60.1 °F 46.9 °F 62% 29.88 in 10.0 mi Calm Calm - N/A   Clear
1:54 AM 57.9 °F 48.0 °F 70% 29.90 in 10.0 mi Calm Calm - N/A   Clear
2:54 AM 59.0 °F 48.0 °F 67% 29.89 in 10.0 mi Calm Calm - N/A   Clear
3:54 AM 55.9 °F 45.0 °F 67% 29.88 in 10.0 mi East 3.5 mph - N/A   Clear
4:54 AM 55.9 °F 44.1 °F 64% 29.89 in 10.0 mi Calm Calm - N/A   Clear
5:54 AM 55.0 °F 44.1 °F 67% 29.90 in 10.0 mi ESE 3.5 mph - N/A   Clear
6:54 AM 55.9 °F 46.0 °F 69% 29.91 in 10.0 mi Calm Calm - N/A   Clear
7:54 AM 57.0 °F 45.0 °F 64% 29.93 in 10.0 mi Calm Calm - N/A   Clear
8:54 AM 64.0 °F 51.1 °F 63% 29.94 in 9.0 mi Calm Calm - N/A   Clear
9:54 AM 66.9 °F 55.0 °F 66% 29.96 in 8.0 mi Calm Calm - N/A   Clear
10:54 AM 68.0 °F 55.9 °F 65% 29.97 in 9.0 mi Calm Calm - N/A   Clear
11:54 AM 73.0 °F 51.1 °F 46% 29.97 in 10.0 mi Calm Calm - N/A   Clear
12:54 PM 69.1 °F 55.9 °F 63% 29.96 in 10.0 mi Variable 5.8 mph - N/A   Clear
1:54 PM 75.0 °F 55.9 °F 51% 29.95 in 10.0 mi WSW 6.9 mph - N/A   Clear
2:54 PM 73.9 °F 55.9 °F 53% 29.95 in 10.0 mi WSW 9.2 mph - N/A   Clear
3:54 PM 73.0 °F 57.0 °F 57% 29.95 in 10.0 mi West 8.1 mph - N/A   Clear
4:54 PM 70.0 °F 57.0 °F 63% 29.96 in 10.0 mi WSW 10.4 mph - N/A   Clear
5:54 PM 66.9 °F 55.9 °F 68% 29.97 in 10.0 mi SSW 6.9 mph - N/A   Clear
6:54 PM 64.0 °F 55.9 °F 75% 29.99 in 9.0 mi ENE 3.5 mph - N/A   Clear
7:54 PM 61.0 °F 55.9 °F 83% 30.01 in 9.0 mi ESE 6.9 mph - N/A   Clear
8:42 PM 60.8 °F 55.4 °F 82% 29.99 in 8.0 mi Calm Calm - N/A   Mostly Cloudy
8:54 PM 60.1 °F 55.9 °F 86% 30.03 in 8.0 mi ENE 3.5 mph - N/A   Overcast
9:15 PM 60.8 °F 55.4 °F 82% 30.00 in 8.0 mi Calm Calm - N/A   Overcast
9:54 PM 60.1 °F 55.9 °F 86% 30.05 in 8.0 mi East 6.9 mph - N/A   Overcast
10:54 PM 60.1 °F 55.9 °F 86% 30.06 in 8.0 mi East 4.6 mph - N/A   Overcast
11:54 PM 60.1 °F 55.9 °F 86% 30.06 in 8.0 mi NE 5.8 mph - N/A   Overcast